Location: Pine Mountain Observatory
(43.7910°N, 120.9377°W)
Time: 06:31:12
(UTC-08:00)

Cosmos 1867 - Visible Passes

Search period start: 05 December 2016 00:00
Search period end: 15 December 2016 00:00
Orbit: 775 x 801 km, 65.0° (Epoch: 03 December)

Date Brightness Start Highest point End Pass type
(mag) Time Alt. Az. Time Alt. Az. Time Alt. Az.
05 Dec 5.7 06:35:48 10° N 06:39:20 17° NNE 06:42:51 10° ENE visible
06 Dec 5.8 06:04:28 10° N 06:07:22 14° NNE 06:10:16 10° ENE visible
07 Dec 5.9 05:33:16 10° N 05:35:22 12° NNE 05:37:28 10° NE visible
08 Dec 6.1 05:02:27 10° N 05:03:19 10° NNE 05:04:10 10° NNE visible
08 Dec 5.0 06:43:47 10° NNW 06:48:42 32° NE 06:53:34 10° ESE visible
09 Dec 5.3 06:12:17 10° NNW 06:16:53 26° NE 06:21:25 10° E visible
10 Dec 5.5 05:40:50 10° NNW 05:45:00 21° NE 05:49:08 10° E visible
11 Dec 5.8 05:09:55 12° N 05:13:05 18° NNE 05:16:43 10° ENE visible
11 Dec 3.8 06:52:08 10° NNW 06:57:38 74° NE 07:03:03 10° SE visible
12 Dec 5.8 04:39:21 13° N 04:41:08 15° NNE 04:44:09 10° ENE visible
12 Dec 4.1 06:20:32 10° NNW 06:25:56 56° NE 06:31:17 10° SE visible
13 Dec 6.1 04:08:50 12° NNE 04:09:08 12° NNE 04:11:25 10° NE visible
13 Dec 4.5 05:49:31 13° NNW 05:54:12 43° NE 05:59:23 10° ESE visible
14 Dec 4.9 05:19:02 18° N 05:22:25 34° NE 05:27:21 10° ESE visible
